Theta_e
298 298 298 298 298 298 298 299 302 308 306 305 306 307 309 309 308 309 308 307 306 310 314 315 318 318 319 319 319 316 313 315 317 320 320 323 324 332 334 346 352 354 349 347 348
298 298 298 298 298 298 298 298 299 303 307 308 306 305 307 308 308 307 307 308 307 313 314 315 316 317 318 320 319 314 314 314 317 318 320 322 322 325 333 344 351 351 347 341 348
299 299 299 300 300 300 301 304 305 305 305 306 307 307 307 306 307 309 314 313 311 310 313 315 316 317 317 319 319 318 315 316 317 319 321 321 323 324 325 337 346 348 345 343 337
299 300 300 300 301 305 305 305 305 305 305 304 305 306 306 306 309 317 316 315 317 313 310 314 315 316 319 317 318 316 317 318 318 319 319 320 323 323 325 331 339 345 346 341 337
300 301 301 303 302 304 305 306 305 304 304 304 304 305 307 306 306 315 312 312 313 317 313 314 314 317 318 318 318 317 317 318 319 319 319 320 321 322 323 326 337 343 339 342 339
301 301 301 303 306 307 307 307 307 306 305 304 304 304 306 308 305 303 305 309 311 315 316 314 316 317 318 318 318 318 317 317 318 319 319 319 320 322 323 325 330 342 343 341 347
302 303 308 309 309 308 307 307 307 308 306 304 304 303 305 306 304 305 309 310 311 311 319 317 318 319 318 317 319 320 317 316 317 318 318 320 319 321 323 329 340 344 345 341 338
302 305 309 309 307 305 303 307 307 307 305 305 304 304 305 303 305 306 303 306 311 312 312 319 320 320 321 321 320 319 316 315 315 318 319 318 318 321 323 331 340 350 346 346 350
302 306 309 307 307 305 303 305 305 307 306 305 304 305 305 308 310 309 308 309 312 314 313 317 320 321 320 320 321 319 318 315 315 318 318 318 318 320 322 327 333 342 346 345 348
302 306 309 306 309 309 307 309 309 309 308 307 306 306 307 309 310 310 310 310 312 316 317 318 320 321 321 320 324 321 317 315 316 317 318 318 318 320 322 326 328 337 339 341 345
302 306 310 309 310 310 310 310 309 310 309 309 309 308 308 310 312 313 312 311 312 314 317 317 321 321 322 320 321 320 318 316 316 318 318 318 318 320 323 325 325 336 339 339 339
303 308 310 310 312 311 310 309 308 308 308 311 312 311 310 311 314 314 313 311 312 313 315 318 320 319 319 320 321 320 318 316 317 319 317 318 319 320 322 323 326 339 339 340 337
304 311 311 313 313 313 311 310 310 310 309 312 314 314 313 312 313 313 314 312 313 314 315 320 320 318 319 320 321 319 317 317 317 318 319 319 319 320 323 324 337 338 339 341 342
304 312 312 314 314 315 313 311 311 310 313 317 315 314 313 314 315 313 314 316 316 316 316 319 319 318 319 320 319 317 317 318 319 319 319 319 320 320 322 324 336 338 339 338 336
304 312 313 314 315 315 314 312 312 311 316 315 315 314 315 315 315 316 315 317 316 318 319 320 316 317 318 318 318 318 318 317 319 320 318 319 320 321 321 322 330 333 336 336 338
306 312 312 313 314 315 316 315 313 317 317 317 316 317 316 315 314 315 315 316 317 318 318 316 316 316 316 318 318 319 317 320 320 319 321 320 322 322 322 322 333 333 334 334 333
308 313 314 313 314 315 317 317 317 318 315 315 317 318 317 316 316 316 316 317 318 317 316 316 315 315 317 317 317 318 322 323 321 323 325 321 322 322 323 323 333 333 332 332 330
309 314 316 314 316 316 318 318 317 316 316 315 318 318 319 316 316 317 317 317 317 317 318 317 318 317 317 318 317 317 320 323 327 326 322 322 325 323 323 323 331 333 331 331 332
311 314 316 314 315 316 318 319 319 316 316 318 318 319 320 318 317 316 317 318 318 317 318 318 317 317 316 316 317 317 321 321 324 323 325 325 323 323 323 324 329 333 331 331 332
313 315 315 315 316 317 315 316 316 316 316 317 321 320 324 321 316 317 319 321 321 320 316 321 318 316 316 316 316 316 319 321 324 327 327 325 324 324 323 324 327 332 331 331 331
313 316 315 314 316 317 317 316 315 315 317 318 320 321 323 322 319 319 321 320 320 319 317 318 319 317 316 316 316 315 317 319 321 321 327 330 324 323 322 322 323 327 330 332 332
311 315 314 313 315 316 315 315 315 315 316 317 319 320 323 323 324 320 322 321 320 319 320 319 319 316 316 316 316 315 316 320 322 327 325 327 327 325 325 323 323 326 329 332 333
309 314 312 310 314 313 316 317 315 316 316 316 317 320 321 322 325 320 319 319 319 320 321 321 320 314 314 314 315 316 316 320 322 323 326 328 328 324 324 326 325 326 327 328 330
310 312 310 308 310 313 314 316 316 315 316 316 318 319 319 322 323 324 320 319 319 319 320 320 321 315 315 314 316 316 316 320 323 323 326 327 326 325 323 324 323 332 333 333 334
308 309 308 308 309 310 312 316 313 315 315 316 317 317 317 323 323 322 323 324 319 320 319 321 325 327 315 316 316 316 316 318 324 326 327 328 328 327 326 328 335 333 331 330 329
307 306 306 307 310 311 311 311 312 312 315 316 316 316 316 321 322 321 321 323 325 323 321 325 326 326 326 316 316 316 316 318 322 324 325 328 330 327 333 331 331 329 329 328 328
307 305 306 309 309 308 309 311 311 310 314 315 315 316 317 318 316 316 317 318 320 322 325 325 324 325 326 321 320 316 316 316 320 326 327 325 329 330 330 328 326 327 328 326 324
Wind_Speed
23 23 23 23 23 23 23 22 22 21 23 25 25 24 23 25 28 26 30 30 19 10 9 13 10 11 13 19 19 19 7 13 21 21 18 22 10 28 28 26 10 6 41 22 7
24 25 25 26 25 24 22 22 22 21 20 21 23 23 23 24 28 32 25 23 22 13 17 10 14 12 14 15 14 9 10 25 6 12 12 22 20 25 6 20 24 32 37 39 16
27 27 27 26 26 26 25 24 24 22 21 18 19 19 20 21 25 10 10 11 10 23 23 16 15 17 24 22 23 12 22 8 20 26 27 24 26 22 10 6 30 34 51 50 46
30 30 30 30 29 28 27 26 25 23 21 20 18 16 17 13 7 9 8 17 16 12 26 20 17 14 3 12 27 14 25 26 21 26 32 21 32 16 14 10 16 34 48 48 56
33 34 34 31 31 28 26 25 24 23 21 20 17 13 15 14 25 11 12 13 12 12 26 24 21 17 8 7 19 23 16 23 25 34 35 31 25 21 24 20 16 20 38 45 52
38 38 35 32 28 27 25 23 21 19 18 18 17 14 16 21 31 25 25 17 13 10 15 23 15 18 13 15 13 9 25 20 26 29 32 21 24 21 30 25 24 38 30 39 42
40 36 35 33 31 31 27 23 19 19 16 14 14 12 18 36 20 19 21 22 23 17 15 19 24 19 13 13 23 22 12 10 20 22 17 26 18 20 24 17 11 12 27 43 33
39 34 34 34 31 28 23 16 11 11 10 9 8 6 15 19 20 23 20 26 20 18 21 20 17 20 24 18 19 8 7 10 14 17 22 13 18 22 24 14 16 31 26 20 32
36 31 33 31 27 25 16 9 7 8 10 1 4 4 14 20 16 24 12 22 17 12 17 18 17 18 15 9 6 7 8 15 13 15 10 11 15 21 28 18 10 27 39 52 25
34 28 30 22 24 23 17 10 10 5 9 5 1 5 11 18 24 13 14 16 14 10 9 20 9 5 9 9 12 11 13 9 14 14 17 17 13 18 25 15 12 22 29 30 36
32 26 26 17 19 17 20 10 7 3 3 8 7 10 17 18 16 11 10 12 15 4 1 8 5 12 16 17 9 7 11 11 8 17 10 18 15 12 14 16 22 26 21 20 12
31 25 21 13 15 14 14 11 9 9 10 12 17 22 21 13 10 6 7 13 6 3 6 4 11 8 9 12 16 16 15 13 17 13 10 16 18 13 9 8 11 28 24 21 17
29 24 17 16 10 15 9 9 9 12 4 11 17 12 11 4 2 7 4 12 9 8 11 6 6 14 17 15 18 15 14 15 12 15 16 13 15 10 7 14 33 29 31 28 30
24 21 19 15 9 13 11 8 12 8 2 11 11 8 9 9 4 5 2 0 3 9 11 8 15 16 16 18 14 14 18 18 15 12 9 15 11 13 11 8 20 22 26 28 29
20 17 15 13 15 12 11 12 15 1 4 14 8 9 10 9 2 4 2 4 7 9 5 6 7 10 17 13 13 16 15 15 14 3 5 8 6 13 16 15 6 14 21 18 15
21 13 16 13 17 13 14 18 9 2 4 7 6 11 3 8 2 2 2 4 6 6 11 14 13 6 8 11 13 10 12 5 4 0 2 9 9 14 9 21 6 13 23 21 20
18 8 15 16 12 10 18 18 3 5 11 9 8 13 6 4 3 2 1 4 3 4 5 11 13 7 9 7 11 13 5 4 2 1 4 8 4 11 18 21 12 15 27 32 29
14 7 12 13 15 14 17 2 7 6 3 8 12 17 6 3 4 7 4 7 11 7 5 7 4 12 15 12 5 9 7 5 6 4 7 8 6 10 20 26 27 34 40 38 31
15 7 9 18 15 16 15 4 3 3 7 8 13 3 3 4 4 7 2 3 5 12 4 3 6 12 8 8 7 6 5 11 4 4 0 4 8 11 20 19 12 27 33 41 43
20 9 11 15 14 15 5 3 5 7 7 6 4 5 6 8 7 5 7 6 5 8 5 5 2 4 6 7 10 6 14 12 6 8 5 10 7 14 9 17 11 12 16 30 39
16 8 10 13 6 6 3 4 8 12 9 4 6 4 8 7 11 6 5 6 11 9 8 6 4 4 7 6 8 3 3 3 2 2 2 1 7 7 16 10 12 19 30 35 26
12 4 12 16 8 2 1 1 9 12 9 4 8 10 11 17 13 10 9 11 16 5 7 2 2 5 7 7 7 6 7 6 3 1 2 5 5 9 4 10 9 16 28 32 26
24 6 10 17 4 4 6 4 3 7 5 5 6 8 16 10 7 7 4 6 17 3 3 3 3 2 2 6 5 3 5 5 8 2 2 2 5 6 6 5 14 20 27 32 24
10 4 9 10 20 7 8 8 6 7 3 9 10 10 17 10 11 7 7 4 15 10 9 3 4 5 7 5 4 6 12 7 6 4 2 3 11 3 4 2 12 36 40 39 34
10 5 9 5 9 15 16 7 9 6 2 9 5 13 12 6 12 14 12 16 3 13 6 4 3 5 6 13 15 16 10 7 6 10 3 5 9 5 8 12 22 33 39 43 42
10 8 11 22 21 14 4 8 9 11 4 3 4 11 11 6 7 14 15 9 4 11 8 5 4 6 4 19 19 14 12 10 13 16 17 5 8 3 25 36 32 29 36 36 42
14 15 10 12 11 10 11 17 14 13 1 6 7 7 10 9 19 24 27 25 19 10 7 4 3 5 6 7 5 7 8 7 8 22 20 3 4 6 16 22 26 25 35 36 37
Wind_Direction
347 341 336 332 330 322 317 311 308 310 300 294 293 294 299 303 302 294 277 271 269 252 242 236 208 214 221 237 241 238 233 238 234 225 237 268 275 266 257 110 88 84 135 133 91
347 344 341 335 331 325 316 307 297 292 297 305 300 292 292 300 304 294 297 275 255 230 247 247 247 230 239 224 227 203 219 234 258 250 248 269 261 274 357 94 102 118 130 142 146
350 344 340 333 327 322 317 313 311 309 298 288 296 303 303 301 312 297 26 17 257 217 232 235 238 254 235 237 218 244 237 254 241 256 266 273 283 292 303 136 149 155 154 163 173
346 342 337 330 326 320 316 315 314 308 304 297 279 293 297 303 265 157 42 13 1 234 223 226 243 259 261 228 229 233 244 247 257 250 263 271 278 287 288 275 171 170 176 176 176
346 343 338 332 328 321 317 314 310 309 305 303 295 272 287 255 247 220 293 290 305 332 207 210 223 230 236 232 228 233 247 252 253 260 270 280 274 278 283 280 184 170 168 184 179
350 346 343 342 338 332 322 319 316 312 305 301 301 269 273 264 268 271 271 290 281 268 200 210 218 222 278 252 245 271 233 255 254 253 256 265 277 286 271 286 241 163 187 186 190
352 350 350 345 338 330 321 316 315 311 302 298 298 282 270 254 260 270 263 262 257 271 217 216 224 227 223 277 268 260 279 252 245 248 253 252 277 268 278 259 206 148 180 186 201
353 352 351 345 340 338 333 319 318 320 304 288 295 293 263 332 318 296 266 259 263 257 245 229 214 236 255 269 282 275 256 255 246 239 245 221 256 266 276 218 161 163 164 233 211
354 353 351 350 1 1 3 35 21 39 19 57 357 227 272 331 305 291 273 254 267 266 231 218 230 239 243 244 286 248 243 237 249 223 223 210 240 258 267 244 204 163 173 187 176
354 352 355 3 18 29 32 1 359 28 25 35 319 281 269 321 326 291 254 241 254 279 223 219 217 209 240 205 213 211 222 242 237 242 217 231 229 243 255 253 219 165 181 189 195
354 351 355 9 21 12 24 12 7 342 278 236 260 252 292 321 358 318 220 213 236 309 270 210 197 209 220 222 246 255 254 231 253 240 195 231 246 231 223 236 251 163 167 173 157
353 351 354 354 16 5 20 31 11 322 301 296 271 269 270 280 1 340 197 187 175 199 256 289 233 231 231 226 237 245 244 244 245 244 203 221 248 241 207 229 224 138 157 171 158
354 356 358 4 359 360 28 4 343 343 282 316 321 310 280 194 77 323 70 203 162 223 254 226 239 229 232 220 226 239 245 248 226 241 229 213 249 230 235 219 104 117 130 137 155
355 0 358 7 12 0 341 326 307 338 279 0 342 359 87 135 59 319 323 106 152 220 233 234 251 217 234 221 213 229 237 244 261 221 219 204 236 232 236 255 125 144 148 154 149
355 359 13 340 341 348 337 324 318 34 47 330 313 312 20 68 97 344 240 324 187 186 203 226 240 254 227 223 222 238 245 240 255 249 259 225 221 221 234 239 156 138 158 158 180
352 348 347 357 343 4 334 325 329 346 8 332 307 327 5 37 30 281 6 283 271 227 234 273 267 219 253 236 239 267 247 303 264 161 307 253 213 236 233 236 140 136 158 168 173
349 352 334 334 346 343 335 331 7 47 342 315 334 332 1 332 95 186 217 221 208 138 218 248 243 243 225 244 260 251 69 17 305 138 203 307 2 241 223 253 162 161 164 167 165
350 331 329 354 352 351 320 313 34 347 337 296 320 324 277 230 115 174 230 263 232 282 270 220 178 190 208 227 230 214 132 136 184 170 229 242 203 243 239 245 165 174 168 165 167
357 351 351 348 350 318 310 34 321 303 294 314 322 304 223 204 238 193 198 267 276 192 248 290 200 173 193 193 187 185 144 180 250 96 166 191 245 297 282 256 202 170 166 167 167
351 358 6 358 345 349 47 313 348 212 322 309 281 294 330 190 188 209 193 236 253 220 190 296 326 198 214 184 244 224 195 193 213 174 177 208 215 220 217 223 185 151 174 180 184
359 317 350 352 68 85 94 348 314 354 344 315 295 294 294 295 182 182 257 248 199 178 195 243 242 204 179 197 239 274 183 80 217 184 70 182 228 240 229 185 162 151 186 187 178
4 318 347 1 17 38 79 259 7 344 350 289 281 265 275 320 281 201 218 234 191 192 199 287 305 167 217 194 228 250 292 121 130 3 234 164 279 284 293 163 134 133 125 166 177
337 284 350 14 20 358 319 341 79 22 334 351 305 310 319 309 313 193 248 204 178 131 174 324 293 135 257 298 303 275 268 140 112 81 30 61 274 325 130 161 136 144 137 140 151
333 331 337 350 354 344 319 300 352 47 15 337 293 335 343 323 335 349 291 184 147 171 206 122 246 168 194 216 214 252 256 167 109 84 45 258 295 91 174 202 79 72 82 84 92
360 350 10 308 325 309 300 311 344 359 140 34 329 1 340 314 335 1 351 329 132 161 202 162 276 351 212 193 214 237 232 208 128 120 65 292 298 295 357 81 90 89 83 76 72
12 348 322 297 301 299 311 357 329 335 1 6 307 326 319 305 9 310 317 330 311 330 312 21 312 0 288 203 218 221 226 241 162 147 203 292 264 38 68 68 71 85 82 80 85
353 338 307 289 309 333 346 328 341 347 29 208 343 326 310 334 317 286 279 273 266 289 292 358 91 18 293 319 304 211 208 237 165 171 148 97 249 87 68 73 60 69 91 96 96